Location: Capannuccia
(43.7000°N, 11.3000°E)
Time: 20:14:51
(UTC+00:00)

Resurs 1-4 Rocket - Visible Passes

Search period start: 25 September 2020 00:00
Search period end: 05 October 2020 00:00
Orbit: 799 x 815 km, 98.6° (Epoch: 25 September)

Date Brightness Start Highest point End Pass type
(mag) Time Alt. Az. Time Alt. Az. Time Alt. Az.
25 Sep 4.2 01:25:23 10° N 01:26:56 20° N 01:26:56 20° N visible
26 Sep 4.5 01:00:39 10° NNE 01:01:55 18° NNE 01:01:55 18° NNE visible
26 Sep 4.4 02:42:36 10° NNW 02:43:00 11° NNW 02:43:00 11° NNW visible
27 Sep 4.8 00:36:07 10° NNE 00:36:55 14° NNE 00:36:55 14° NNE visible
27 Sep 4.3 02:16:53 10° NNW 02:17:59 14° NNW 02:17:59 14° NNW visible
28 Sep 5.1 00:11:46 10° NNE 00:11:53 11° NNE 00:11:53 11° NNE visible
28 Sep 4.3 01:51:42 10° N 01:52:57 16° NNW 01:52:57 16° NNW visible
29 Sep 4.4 01:26:47 10° N 01:27:56 17° N 01:27:56 17° N visible
30 Sep 4.7 01:02:02 10° NNE 01:02:55 15° NNE 01:02:55 15° NNE visible
01 Oct 4.9 00:37:29 10° NNE 00:37:54 12° NNE 00:37:54 12° NNE visible
01 Oct 4.4 02:18:19 10° NNW 02:18:58 12° NNW 02:18:58 12° NNW visible
02 Oct 4.5 01:53:07 10° N 01:53:57 14° N 01:53:57 14° N visible
03 Oct 4.6 01:28:11 10° N 01:28:56 14° N 01:28:56 14° N visible
04 Oct 4.8 01:03:26 10° NNE 01:03:55 13° NNE 01:03:55 13° NNE visible
